• In Hungary
  • List of Countries
  • For 7 days
  • Water Temperature
  • Satellite Maps
  • Weather Map
  • News
  • Weather Widgets
  • user-avatar
    Login

    Hourly Weather Benicarlo

    Today, 19 January, Friday

    Time Temperature Precipitation Wind Pressure Humidity
    00:00 +12°C° 0 mm 3 mps 764 mmHg 49%
    01:00 +11°C° 0 mm 3 mps 764 mmHg 51%
    02:00 +11°C° 0 mm 3 mps 764 mmHg 53%
    03:00 +11°C° 0 mm 3 mps 763 mmHg 56%
    04:00 +11°C° 0 mm 3 mps 763 mmHg 59%
    05:00 +11°C° 0 mm 3 mps 763 mmHg 62%
    06:00 +11°C° 0 mm 3 mps 763 mmHg 66%
    07:00 +12°C° 0 mm 3 mps 763 mmHg 65%
    08:00 +12°C° 0 mm 4 mps 763 mmHg 64%
    09:00 +13°C° 0 mm 4 mps 763 mmHg 63%
    10:00 +14°C° 0 mm 5 mps 763 mmHg 59%
    11:00 +16°C° 0 mm 5 mps 763 mmHg 55%
    12:00 +17°C° 0 mm 6 mps 763 mmHg 50%
    13:00 +17°C° 0 mm 6 mps 763 mmHg 49%
    14:00 +17°C° 0 mm 6 mps 763 mmHg 49%
    15:00 +17°C° 0 mm 6 mps 763 mmHg 48%
    16:00 +16°C° 0 mm 7 mps 763 mmHg 51%
    17:00 +15°C° 0 mm 7 mps 763 mmHg 55%
    18:00 +13°C° 0 mm 8 mps 764 mmHg 59%
    19:00 +12°C° 0 mm 8 mps 765 mmHg 59%
    20:00 +12°C° 0 mm 9 mps 765 mmHg 59%
    21:00 +11°C° 0 mm 10 mps 766 mmHg 59%
    22:00 +11°C° 0 mm 10 mps 766 mmHg 59%
    23:00 +11°C° 0 mm 10 mps 766 mmHg 58%

    Tomorrow, 20 January, Saturday

    Time Temperature Precipitation Wind Pressure Humidity
    00:00 +11°C° 0 mm 9 mps 766 mmHg 58%
    01:00 +11°C° 0 mm 9 mps 766 mmHg 59%
    02:00 +11°C° 0 mm 8 mps 766 mmHg 60%
    03:00 +10°C° 0 mm 8 mps 766 mmHg 61%
    04:00 +10°C° 0 mm 7 mps 766 mmHg 60%
    05:00 +10°C° 0 mm 7 mps 766 mmHg 59%
    06:00 +10°C° 0 mm 6 mps 766 mmHg 58%
    07:00 +11°C° 0 mm 6 mps 767 mmHg 56%
    08:00 +13°C° 0 mm 5 mps 767 mmHg 53%
    09:00 +13°C° 0 mm 5 mps 767 mmHg 50%
    10:00 +15°C° 0 mm 5 mps 766 mmHg 44%
    11:00 +16°C° 0 mm 6 mps 766 mmHg 39%
    12:00 +19°C° 0 mm 6 mps 765 mmHg 33%
    13:00 +19°C° 0 mm 6 mps 765 mmHg 33%
    14:00 +20°C° 0 mm 6 mps 764 mmHg 34%
    15:00 +20°C° 0 mm 7 mps 764 mmHg 34%
    16:00 +18°C° 0 mm 7 mps 764 mmHg 36%
    17:00 +17°C° 0 mm 7 mps 764 mmHg 39%
    18:00 +17°C° 0 mm 7 mps 764 mmHg 41%
    19:00 +17°C° 0 mm 8 mps 764 mmHg 44%
    20:00 +16°C° 0 mm 10 mps 765 mmHg 47%
    21:00 +16°C° 0 mm 11 mps 765 mmHg 50%
    22:00 +15°C° 0 mm 12 mps 765 mmHg 51%
    23:00 +15°C° 0 mm 12 mps 765 mmHg 52%

    Day after tomorrow, 21 January, Sunday

    Time Temperature Precipitation Wind Pressure Humidity
    00:00 +17°C° 0 mm 13 mps 765 mmHg 53%
    01:00 +17°C° 0 mm 13 mps 765 mmHg 54%
    02:00 +15°C° 0 mm 13 mps 765 mmHg 55%
    03:00 +15°C° 0 mm 13 mps 765 mmHg 57%
    04:00 +15°C° 0 mm 12 mps 765 mmHg 57%
    05:00 +15°C° 0 mm 12 mps 766 mmHg 58%
    06:00 +15°C° 0 mm 12 mps 766 mmHg 59%
    07:00 +15°C° 0 mm 12 mps 766 mmHg 58%
    08:00 +17°C° 0 mm 12 mps 766 mmHg 57%
    09:00 +17°C° 0 mm 12 mps 767 mmHg 56%
    10:00 +18°C° 0 mm 11 mps 767 mmHg 52%
    11:00 +19°C° 0 mm 11 mps 766 mmHg 48%
    12:00 +21°C° 0 mm 10 mps 766 mmHg 45%
    13:00 +21°C° 0 mm 9 mps 766 mmHg 45%
    14:00 +21°C° 0 mm 9 mps 766 mmHg 45%
    15:00 +21°C° 0 mm 8 mps 766 mmHg 45%
    16:00 +20°C° 0 mm 8 mps 766 mmHg 48%
    17:00 +18°C° 0 mm 8 mps 766 mmHg 52%
    18:00 +17°C° 0 mm 7 mps 766 mmHg 55%
    19:00 +17°C° 0 mm 7 mps 767 mmHg 56%
    20:00 +17°C° 0 mm 7 mps 767 mmHg 58%
    21:00 +17°C° 0 mm 7 mps 768 mmHg 59%
    22:00 +16°C° 0 mm 7 mps 768 mmHg 59%
    23:00 +16°C° 0 mm 7 mps 768 mmHg 59%

    22 January, Monday

    Time Temperature Precipitation Wind Pressure Humidity
    00:00 +16°C° 0 mm 6 mps 768 mmHg 60%
    01:00 +16°C° 0 mm 6 mps 768 mmHg 60%
    02:00 +15°C° 0 mm 6 mps 767 mmHg 60%
    03:00 +15°C° 0 mm 5 mps 767 mmHg 60%
    04:00 +15°C° 0 mm 5 mps 767 mmHg 60%
    05:00 +15°C° 0 mm 4 mps 767 mmHg 61%
    06:00 +14°C° 0 mm 4 mps 767 mmHg 62%
    07:00 +15°C° 0 mm 4 mps 767 mmHg 59%
    08:00 +16°C° 0 mm 3 mps 768 mmHg 57%
    09:00 +17°C° 0 mm 3 mps 768 mmHg 55%
    10:00 +18°C° 0 mm 3 mps 768 mmHg 51%
    11:00 +20°C° 0 mm 3 mps 767 mmHg 47%
    12:00 +21°C° 0 mm 3 mps 767 mmHg 43%
    13:00 +21°C° 0 mm 3 mps 767 mmHg 43%
    14:00 +21°C° 0 mm 3 mps 767 mmHg 44%
    15:00 +21°C° 0 mm 4 mps 766 mmHg 44%
    16:00 +19°C° 0 mm 3 mps 767 mmHg 49%
    17:00 +18°C° 0 mm 3 mps 767 mmHg 54%
    18:00 +16°C° 0 mm 3 mps 767 mmHg 60%
    19:00 +16°C° 0 mm 3 mps 768 mmHg 61%
    20:00 +16°C° 0 mm 3 mps 768 mmHg 62%
    21:00 +14°C° 0 mm 3 mps 769 mmHg 63%
    22:00 +15°C° 0 mm 2 mps 769 mmHg 64%
    23:00 +15°C° 0 mm 2 mps 769 mmHg 65%

    23 January, Tuesday

    Time Temperature Precipitation Wind Pressure Humidity
    00:00 +14°C° 0 mm 2 mps 769 mmHg 66%
    01:00 +14°C° 0 mm 2 mps 769 mmHg 66%
    02:00 +14°C° 0 mm 2 mps 769 mmHg 66%
    03:00 +14°C° 0 mm 2 mps 769 mmHg 66%
    04:00 +14°C° 0 mm 2 mps 769 mmHg 66%
    05:00 +13°C° 0 mm 2 mps 769 mmHg 67%
    06:00 +13°C° 0 mm 2 mps 769 mmHg 67%
    07:00 +14°C° 0 mm 2 mps 770 mmHg 64%
    08:00 +15°C° 0 mm 2 mps 770 mmHg 61%
    09:00 +16°C° 0 mm 2 mps 770 mmHg 57%
    10:00 +17°C° 0 mm 2 mps 770 mmHg 54%
    11:00 +18°C° 0 mm 2 mps 770 mmHg 50%
    12:00 +19°C° 0 mm 2 mps 770 mmHg 47%
    13:00 +20°C° 0 mm 2 mps 769 mmHg 47%
    14:00 +20°C° 0 mm 2 mps 769 mmHg 48%
    15:00 +20°C° 0 mm 2 mps 769 mmHg 48%
    16:00 +18°C° 0 mm 2 mps 769 mmHg 55%
    17:00 +17°C° 0 mm 2 mps 769 mmHg 63%
    18:00 +15°C° 0 mm 2 mps 769 mmHg 70%
    19:00 +15°C° 0 mm 2 mps 770 mmHg 70%
    20:00 +14°C° 0 mm 1 mps 770 mmHg 70%
    21:00 +14°C° 0 mm 1 mps 770 mmHg 71%
    22:00 +14°C° 0 mm 1 mps 770 mmHg 70%
    23:00 +14°C° 0 mm 1 mps 770 mmHg 70%

    24 January, Wednesday

    Time Temperature Precipitation Wind Pressure Humidity
    00:00 +13°C° 0 mm 1 mps 770 mmHg 70%
    01:00 +13°C° 0 mm 1 mps 770 mmHg 70%
    02:00 +13°C° 0 mm 1 mps 770 mmHg 70%
    03:00 +13°C° 0 mm 1 mps 769 mmHg 70%
    04:00 +12°C° 0 mm 1 mps 769 mmHg 71%
    05:00 +12°C° 0 mm 1 mps 769 mmHg 71%
    06:00 +12°C° 0 mm 1 mps 769 mmHg 71%
    07:00 +13°C° 0 mm 1 mps 769 mmHg 67%
    08:00 +14°C° 0 mm 1 mps 769 mmHg 63%
    09:00 +16°C° 0 mm 1 mps 770 mmHg 59%
    10:00 +18°C° 0 mm 1 mps 769 mmHg 55%
    11:00 +18°C° 0 mm 2 mps 769 mmHg 52%
    12:00 +19°C° 0 mm 2 mps 769 mmHg 48%
    13:00 +19°C° 0 mm 2 mps 768 mmHg 49%
    14:00 +19°C° 0 mm 3 mps 768 mmHg 51%
    15:00 +19°C° 0 mm 3 mps 767 mmHg 52%
    16:00 +17°C° 0 mm 3 mps 767 mmHg 60%
    17:00 +16°C° 0 mm 2 mps 767 mmHg 69%
    18:00 +14°C° 0 mm 2 mps 768 mmHg 77%
    19:00 +14°C° 0 mm 2 mps 768 mmHg 77%
    20:00 +13°C° 0 mm 2 mps 768 mmHg 77%
    21:00 +13°C° 0 mm 2 mps 768 mmHg 76%
    22:00 +13°C° 0 mm 2 mps 768 mmHg 76%
    23:00 +13°C° 0 mm 2 mps 768 mmHg 75%
    Show more